"Pseudo-MPEC" for A107zJJ

Created 2018 Jul 13 23:18:07 UT using Find_Orb

Click here for an explanation of pseudo-MPECs

 
 Astrometry: 
     A107zJJ  C2018 07 11?FAstrometry;KPZN*`N0K?`k-J):4;O6bm_\PY!wtLM.T2o\Bt(T05
     A107zJJ  C2018 07 11ec,H#t,04I$M#:#6;1B(?P:h36bir'R$*/xHpc\?AcB[fYPADL#=T05
     A107zJJ  C2018 07 11#q`j-3%*?]4(56xxL=?5:TUM+vKWyB4J($W+76i0sW9cm7a?/[.#T05
     A107zJJ  C2018 07 115cPt:URmwfEOe6@.Gme`V2wr+,S9/BV9=pnodF5\LZ1kqQyrEX!PT05
     A107zJJ KC2018 07 11UM[t%#*s@!AiegXGm92^dd7\cUn_#l@?LnyOyroTm8?[q@Nd,g(JC95
     A107zJJ KC2018 07 11$342,MiRn/$bTo4#I'pBbA7+IXgs6+a$qmR`EI#eW2y5['_XCt41C95
     A107zJJ KC2018 07 11ClR=)7X-bK_J_LMV7_BkNWL35o90*$SPVJ3G(A/-Z1Wt7_*OxLtLC95
     A107zJJ KC2018 07 11)F9?;,Oy0\P@-=g5^PCsaTGymQ(kWq`0Y=bqE!RAAWq*3MQ2@\nfC95
     A107zJJ KC2018 07 119p]SrngidO:Et;E4gredacted;k8@uKG7h+T/Uk'_)q$Y1I-'H4;C95
     A107zJJ KC2018 07 11i6`\05-X;EW*.@`y\g9f8qy$t,+B@f0`Huu/-jT-!9;Ayn#f-CYXC95
     A107zJJ cC2018 07 11.98200917 56 30.62 -15 09 41.8                VNEOCPJ95
     A107zJJ KC2018 07 11.98529817 56 24.97 -15 08 45.9          18.6 GVNEOCPJ95
     A107zJJ  C2018 07 12B]ROhuIh;4(c/#rG'#H@rCsfF9NDr,fU_;w4??OSGlb$XKy[MsSpJ04
     A107zJJ KC2018 07 12l?q`G;XT'hmwe[+0oRV11ti\tJdm#Z:v+DFXR(FE%fZAqDj#!4NjK63
     A107zJJ KC2018 07 12KHn5pqIdGUdk!vw)wvbcV]4M7(L)LQ+@f!kie9D)^6]#2F@i]TC1K63
     A107zJJ KC2018 07 12kxmq'tH2:hh`X-SV7kV=':t:::]Qn_X01_*YLx:^ZGk6^]GUd;OXK63
     A107zJJ KC2018 07 12/C;`7v#QT3bnqu@oQ4.1[yt\I)!3YMVO3H%6y3#;'tj!DB5R-K+/104
     A107zJJ KC2018 07 12EB2NCPaV#r+k@0'?x_4%YX[Wp/bA;K@]^oZh06F(B7H,rA^W/dkB104
     A107zJJ KC2018 07 12.95100517 25 37.14 -09 39 09.2                VNEOCPJ95
     A107zJJ KC2018 07 12.95730917 25 22.80 -09 36 34.8                VNEOCPJ95
     A107zJJ KC2018 07 12.96300017 25 09.92 -09 34 14.7                VNEOCPJ95
     A107zJJ KC2018 07 12.96872017 24 56.90 -09 31 54.5          18.7 GVNEOCPJ95
     A107zJJ KC2018 07 13EHvoX^kM01dHD6k4\M0sPqlKUI5?nW=SseehO8YHj@pK`pRCCcpsH21
     A107zJJ KC2018 07 13Zby5f4/Zk'QDo6((8sbx@Inslk\?%+ER:Ywv1uk72NtJGv3y=6G6H21
     A107zJJ KC2018 07 13\8LxWBWOM'B6XGTc8f72j8cW7Zm^JOQvN.r+8EbsAxR_y,#7L:$SH21
     A107zJJ KC2018 07 13gNDGA]KK4GSvs84.:R`SQFVCrqGh$hHi8_:cs;p4T^,/lFa,TmR0104
     A107zJJ KC2018 07 136$[7m9YcH!!uW4EEi)QRvRm(,:5p*9RA`EJa%cD8OX]t!fL-X!yd104
     A107zJJ KC2018 07 13o4ZMfu42v^MR=6q;(NeuO,!7Yl!wa5Wacx]wd357e,(6H0kvPf%6L01
     A107zJJ KC2018 07 13g8.:wJOT1l,HCp52bU?jkgT\c^BtC_3CG'@qVO]#5_F,uYHPx8u?L01
     A107zJJ KC2018 07 13F2\+4$YX=lUeMP6*%Ma:3-.@H^:Y7;ksFZx%loLGZywK]VxDKe,KL01
     A107zJJ KC2018 07 13sLN1EBE\]jV)J.c#i8BocL;$w'0T7*f\M10!Nn\1v:nRBdoNEOCPL01

Station data:
(104) San Marcello Pistoiese  (N44.063037 E10.804200)  Italy. 0.40-m f/5
   reflector.
(C95) SATINO Remote Observatory, Haute Provence  (N43.932042 E5.712390)
   France.
(H21) Astronomical Research Observatory, Westfield  (N39.483057 W87.968270)
   US/Illinois. 0.76-m f/3.0 astrograph + CCD.
(J04) ESA Optical Ground Station, Tenerife  (N28.300924 W16.511830)  Canary
   Islands (Spain).  Observer D. Abreu. Measurers M. Micheli, D. Koschny, E.
   Schwab, M. Busch, A. Knöfel. 1.0-m f/4.4 reflector + CCD.
(J95) Great Shefford  (N51.474969 W1.447003)  UK.  Observer P. Birtwhistle.
   0.40-m f/6.0 Schmidt-Cassegrain + CCD.
(K63) G. Pascoli Observatory, Castelvecchio Pascoli  (N44.082410 E10.462000)
   Italy.
(L01) Višnjan Observatory, Tičan  (N45.290900 E13.749300)  Croatia.  Observer
   K. Korlević. 1.0-m f/2.9 reflector + CCD.
(T05) ATLAS-HKO, Haleakala  (N20.707573 W156.257010)  US/Hawaii.  Observers
   L. Denneau, A. Heinze, H. Weiland, B. Stalder, J. Tonry, A. Sherstyuk.
   Measurers L. Denneau, A. Heinze, J. Tonry. 0.5-m f/2.0 Schmidt + CCD.

Orbital elements:  A107zJJ
   Perihelion 2018 Sep 16.057515 +/- 0.088 TT =  1:22:49 (JD 2458377.557515)
Epoch 2018 Jul 13.0 TT = JDT 2458312.5   Earth MOID: 0.0150   Ve: 0.0250
M 306.33843 +/- 0.17                (J2000 ecliptic)          AutoNEOCP
n   0.82483270 +/- 0.00156          Peri.  114.91586 +/- 0.006
a   1.12605292 +/- 0.00141          Node   286.56136 +/- 0.0008
e   0.4933191 +/- 0.00134           Incl.    8.77408 +/- 0.030
P   1.19/436.44d           H 24.9   G  0.15   U  8.4  
q 0.57054947 +/- 0.000793    Q 1.68155637 +/- 0.00362
From 31 observations 2018 July 11-13; mean residual 0".52
Residuals in arcseconds: 
180711 T05  .09+  .11+    180711 J95  .30-  .53-    180713 H21  .08+  .27-    
180711 T05  .49-  .47+    180712 J04  .39+  .26+    180713 H21  .14-  .18-    
180711 T05  .26+  .29-    180712 K63  .86-  .28+    180713 H21  .26-  .29-    
180711 T05  .72-  .24-    180712 K63  1.0-  .53+    180713 104  .22-  .03-    
180711 C95  .63+  .63+    180712 K63  1.0-  .23+    180713 104  .53-  .05-    
180711 C95  .20+  .35-    180712 104  .15+  .20+    180713 L01  .50-  .24-    
180711 C95  .19-  .47-    180712 104  .14-  .49+    180713 L01  .30+  .52-    
180711 C95  .34+  .62+    180712 J95  .33+  .09+    180713 L01  .20-  .59-    
180711 C95  .86+  1.6+    180712 J95  .24-  .13+    180713 L01  .17-  .42-    
180711 C95  .50+  1.8+    180712 J95  .50+  .54+    
180711 J95  .23-  .52-    180712 J95  .41+  .00     

Ephemerides (geocentric):
Date (UTC) HH   RA              Dec         delta   r     elong  mag " sig PA
---- -- -- --  -------------   -----------  ------ ------ -----  --- ---- ---
2018 07 13 23  16 42 54.704   -01 24 14.84  .02899 1.0369 134.2 19.0  .69   9
2018 07 14 00  16 40 52.534   -01 00 22.99  .02882 1.0366 133.5 19.0  .68   9
2018 07 14 01  16 38 49.033   -00 36 14.86  .02866 1.0362 132.8 19.0  .68   9
2018 07 14 02  16 36 44.197   -00 11 50.66  .02851 1.0359 132.1 19.0  .68  10
2018 07 14 03  16 34 38.026   +00 12 49.37  .02836 1.0355 131.4 19.0  .68  10
2018 07 14 04  16 32 30.521   +00 37 44.94  .02821 1.0352 130.7 19.0  .68  11
2018 07 14 05  16 30 21.680   +01 02 55.75  .02807 1.0348 130.0 19.0  .67  11
2018 07 14 06  16 28 11.508   +01 28 21.47  .02793 1.0344 129.3 19.0  .67  12
2018 07 14 07  16 26 00.006   +01 54 01.74  .02779 1.0341 128.6 19.0  .67  12
2018 07 14 08  16 23 47.177   +02 19 56.16  .02766 1.0337 127.8 19.0  .66  13
2018 07 14 09  16 21 33.027   +02 46 04.31  .02753 1.0334 127.1 19.0  .66  14
2018 07 14 10  16 19 17.562   +03 12 25.74  .02741 1.0330 126.4 19.1  .66  14
2018 07 14 11  16 17 00.789   +03 38 59.96  .02729 1.0327 125.6 19.1  .65  15
2018 07 14 12  16 14 42.716   +04 05 46.46  .02718 1.0323 124.9 19.1  .65  16
2018 07 14 13  16 12 23.352   +04 32 44.69  .02707 1.0319 124.1 19.1  .65  17
2018 07 14 14  16 10 02.707   +04 59 54.08  .02696 1.0316 123.3 19.1  .64  18
2018 07 14 15  16 07 40.795   +05 27 14.01  .02686 1.0312 122.6 19.1  .64  19
2018 07 14 16  16 05 17.627   +05 54 43.86  .02676 1.0309 121.8 19.1  .63  20
2018 07 14 17  16 02 53.219   +06 22 22.94  .02667 1.0305 121.0 19.1  .63  21
2018 07 14 18  16 00 27.586   +06 50 10.58  .02658 1.0301 120.2 19.2  .63  22
2018 07 14 19  15 58 00.746   +07 18 06.04  .02650 1.0298 119.4 19.2  .62  23
2018 07 14 20  15 55 32.716   +07 46 08.59  .02642 1.0294 118.6 19.2  .62  24
2018 07 14 21  15 53 03.518   +08 14 17.43  .02635 1.0291 117.8 19.2  .61  25
2018 07 14 22  15 50 33.171   +08 42 31.78  .02628 1.0287 117.0 19.2  .61  26
2018 07 14 23  15 48 01.700   +09 10 50.81  .02622 1.0284 116.2 19.2  .61  28
2018 07 15 00  15 45 29.128   +09 39 13.68  .02616 1.0280 115.4 19.3  .60  29
2018 07 15 01  15 42 55.480   +10 07 39.53  .02611 1.0276 114.6 19.3  .60  30
2018 07 15 02  15 40 20.785   +10 36 07.47  .02606 1.0273 113.8 19.3  .60  32
2018 07 15 03  15 37 45.069   +11 04 36.61  .02602 1.0269 112.9 19.3  .60  33
2018 07 15 04  15 35 08.364   +11 33 06.05  .02598 1.0266 112.1 19.3  .59  35
2018 07 15 05  15 32 30.701   +12 01 34.85  .02594 1.0262 111.3 19.4  .59  36
2018 07 15 06  15 29 52.111   +12 30 02.10  .02592 1.0258 110.5 19.4  .59  38
2018 07 15 07  15 27 12.630   +12 58 26.85  .02589 1.0255 109.6 19.4  .59  39
2018 07 15 08  15 24 32.292   +13 26 48.17  .02588 1.0251 108.8 19.4  .59  41
2018 07 15 09  15 21 51.135   +13 55 05.11  .02586 1.0248 108.0 19.5  .59  42
2018 07 15 10  15 19 09.195   +14 23 16.72  .02585 1.0244 107.1 19.5  .59  44
2018 07 15 11  15 16 26.513   +14 51 22.08  .02585 1.0240 106.3 19.5  .59  45
2018 07 15 12  15 13 43.129   +15 19 20.25  .02585 1.0237 105.5 19.5  .59  47
2018 07 15 13  15 10 59.083   +15 47 10.30  .02586 1.0233 104.6 19.6  .59  49
2018 07 15 14  15 08 14.419   +16 14 51.32  .02587 1.0230 103.8 19.6  .60  50
2018 07 15 15  15 05 29.180   +16 42 22.41  .02589 1.0226 103.0 19.6  .60  52
2018 07 15 16  15 02 43.411   +17 09 42.68  .02591 1.0222 102.1 19.6  .60  53
2018 07 15 17  14 59 57.157   +17 36 51.28  .02594 1.0219 101.3 19.7  .61  55
2018 07 15 18  14 57 10.464   +18 03 47.34  .02597 1.0215 100.5 19.7  .61  56
2018 07 15 19  14 54 23.380   +18 30 30.06  .02601 1.0211  99.7 19.7  .62  57
2018 07 15 20  14 51 35.952   +18 56 58.62  .02605 1.0208  98.8 19.8  .62  59
2018 07 15 21  14 48 48.228   +19 23 12.27  .02610 1.0204  98.0 19.8  .63  60
2018 07 15 22  14 46 00.257   +19 49 10.24  .02615 1.0201  97.2 19.8  .63  61